User: anonymous   Login
Location: Unspecified
(0.0000°N, 0.0000°E)
Time: 03:31:32
(UTC+02:00)
Language:

ISS - Orbit

View from above orbital plane
View from above orbital plane
View from above satellite
View from above satellite

Ground track
Ground track

The orbit data is extracted from the following two-line orbital elements,

1 25544U 98067A   16274.75754892  .00016717  00000-0  10270-3 0  9037
2 25544  51.6419 251.4296 0006852  19.6985 340.4431 15.54058957 21401
Epoch (UTC): 30 September 2016 18:10:52
Eccentricity: 0.0006852
inclination: 51.6419°
perigee height: 400 km
apogee height: 409 km
right ascension of ascending node: 251.4296°
argument of perigee: 19.6985°
revolutions per day: 15.54058957
mean anomaly at epoch: 340.4431°
orbit number at epoch: 2140

The dashed part of the orbit path shows where the satellite is in the earth's shadow,  

DLR